Tracking 17143 objects as of 25-May-2015
HD Live streaming from Space Station

MAQSAT H

Track MAQSAT H now!
10-day predictions
MAQSAT H is classified as:


NORAD ID: 25023
Int'l Code: 1997-066A
Perigee: 561.9 km
Apogee: 26,439.0 km
Inclination: 7.8 °
Period: 464.6 minutes
Semi major axis: 19871 km
RCS: 21.0323 m2 (large)
Launch date: October 30, 1997
Source: European Space Agency (ESA)
Your satellite tracking list
Your tracking list is empty





NASA's NSSDC Master Catalog

Two Line Element Set (TLE):
1 25023U 97066A   15144.16411571  .00000224  00000-0  16936-2 0  9996
2 25023 007.7502 079.3382 6511127 023.0788 021.9100 03.09926228198505

Source of the keplerian elements: AFSPC

N2YO: 382